Location: Erdweis
(48.5167°N, 15.3500°E)
Time: 06:56:54
(UTC+00:00)

Cosmos 1743 - Pass Details

Date: 18 September 2020
Orbit: 510 x 527 km, 82.6° (Epoch: 23 October)

Event Time Altitude Azimuth Distance (km) Brightness Sun altitude
Rises 17:41:25 0° 201° (SSW) 2,636 6.4 -6.9°
Reaches altitude 10° 17:43:36 10° 207° (SSW) 1,750 5.6 -7.3°
Maximum altitude 17:47:19 48° 283° (WNW) 682 3.9 -7.9°
Drops below altitude 10° 17:51:04 10° 359° (N) 1,755 5.6 -8.5°
Sets 17:53:16 0° 5° (N) 2,645 6.4 -8.9°
